Temperature
19 19 19 19 20 20 20 20 20 20 20 20 20 19 19 19 19 19 19 19 18 18 18 18 18 18 18 18 18 18 18 18 17 17 17 17 17 17 17 17 17 17 17
20 20 19 19 20 20 20 20 20 20 20 20 19 19 19 19 19 19 19 18 18 18 18 18 18 18 18 18 18 18 18 18 18 17 17 17 17 17 17 17 17 17 17
20 20 20 20 20 20 20 20 20 20 20 19 19 19 19 19 19 19 18 18 18 18 18 18 18 18 18 18 18 18 18 17 17 17 17 17 17 17 17 17 17 17 17
21 20 20 20 20 20 20 20 20 20 20 19 19 19 19 19 19 19 18 18 18 18 18 18 18 18 18 18 18 18 18 18 17 17 17 17 17 17 17 17 17 17 17
21 20 20 20 20 20 20 20 20 20 20 19 19 19 19 19 19 18 18 18 18 18 18 18 18 18 17 17 17 17 18 18 18 18 17 17 17 17 17 17 17 17 17
20 20 20 20 20 20 20 20 20 20 20 19 19 19 19 19 19 18 18 18 18 18 18 18 18 17 17 17 17 17 18 18 18 17 17 17 17 17 17 17 17 17 17
20 20 20 20 20 20 20 20 20 20 20 19 19 19 19 19 18 18 18 18 18 18 18 18 17 17 17 17 17 18 18 18 18 18 17 17 17 17 17 17 17 17 17
20 20 20 20 20 20 20 20 20 19 19 19 19 19 19 18 18 18 18 18 18 18 18 17 17 17 17 17 17 18 18 18 18 18 17 17 17 17 17 17 17 17 17
20 20 20 20 19 19 19 19 19 19 19 19 19 19 18 18 18 18 18 18 18 18 17 17 17 17 17 17 17 18 18 18 18 18 17 17 17 17 17 17 17 17 17
20 20 20 19 19 19 19 19 19 19 19 19 19 18 18 18 18 18 18 18 18 18 17 17 17 17 17 17 17 18 18 18 18 18 17 17 17 17 17 17 17 17 17
19 19 19 19 19 19 19 19 19 19 19 18 18 18 18 18 18 18 17 17 18 17 17 17 17 17 17 17 17 17 17 18 18 18 17 17 17 17 17 17 17 17 17
19 19 19 19 19 19 19 19 18 19 19 18 18 18 18 18 17 17 17 17 17 17 17 17 17 17 17 17 17 17 17 18 18 17 17 17 17 17 17 17 17 17 17
19 19 19 19 19 19 19 19 18 18 18 18 18 18 18 17 17 17 17 17 17 17 17 17 17 17 17 17 17 17 17 17 17 17 17 17 17 17 17 17 17 17 17
19 19 19 19 19 19 19 18 18 18 18 18 18 18 17 17 17 17 17 17 17 17 17 17 17 17 17 17 17 17 17 17 17 17 17 17 17 17 17 17 17 17 17
19 18 18 18 19 18 18 18 18 18 18 18 18 17 17 17 17 17 17 17 17 17 17 17 17 17 17 17 17 17 17 17 17 17 17 17 17 17 16 16 16 17 17
18 18 18 18 18 18 18 18 18 18 18 18 17 17 17 17 17 17 17 17 17 17 16 16 16 16 16 16 16 16 16 17 17 17 17 17 16 16 16 16 16 16 16
18 18 18 18 18 18 18 18 18 18 18 17 17 17 17 17 17 17 17 17 16 16 16 16 16 16 16 16 16 16 16 16 16 16 16 16 16 16 16 16 16 16 16
18 18 18 18 18 18 18 18 18 18 17 17 17 17 17 17 17 16 16 16 16 16 16 16 16 16 16 16 16 16 16 16 16 16 16 16 16 16 16 16 16 16 16
18 18 18 18 18 18 18 18 18 17 17 17 17 17 17 17 16 16 16 16 16 16 16 16 16 16 16 16 16 16 16 16 16 16 16 16 16 16 16 16 16 16 16
18 18 18 17 18 18 18 17 17 17 17 17 17 17 17 17 16 16 16 16 16 16 16 16 16 16 16 16 16 16 16 16 16 16 16 16 16 16 16 16 16 16 15
17 17 17 17 17 17 17 17 17 17 17 17 17 17 16 16 16 16 16 16 16 16 15 15 15 15 16 16 16 16 16 16 16 16 16 16 16 16 16 16 15 15 15
17 17 17 18 17 18 17 18 17 17 17 17 17 17 16 16 16 16 16 16 15 15 15 15 15 15 15 16 15 15 15 15 16 16 16 16 16 16 15 15 15 15 15
17 17 17 17 17 17 17 17 17 17 17 17 16 16 16 16 16 16 16 15 15 15 15 15 15 15 15 15 15 16 16 16 16 16 16 16 15 15 15 15 15 15 15
17 17 17 17 17 17 17 17 17 17 17 17 17 17 16 16 16 16 16 15 15 15 15 15 15 15 15 15 15 16 16 16 16 15 15 15 15 15 15 15 15 15 15
18 17 17 17 17 17 17 17 17 17 17 17 17 17 16 16 16 16 15 15 15 15 15 15 15 15 15 15 15 15 15 16 16 16 15 15 15 15 15 15 15 15 15
18 17 17 17 17 17 17 17 17 17 17 17 17 17 16 16 16 16 15 15 15 15 15 15 15 15 15 15 15 15 15 15 15 15 15 15 15 15 15 15 15 15 15
Wind_Speed
9 13 19 19 20 19 20 20 20 20 20 20 20 20 19 18 17 16 15 15 14 14 14 14 14 15 15 15 15 15 15 15 15 15 15 16 16 16 17 17 17 16 18
14 17 21 20 20 20 20 20 19 19 19 19 19 19 18 18 17 16 15 15 14 14 14 14 15 15 15 15 15 15 15 14 14 15 15 15 15 16 16 16 16 15 17
17 18 21 21 20 20 20 19 19 19 19 19 18 18 17 17 16 15 15 14 14 14 14 15 15 15 15 15 14 14 14 14 14 14 14 12 14 15 15 16 16 16 16
17 17 19 22 21 20 20 19 19 18 18 18 17 17 16 16 15 15 15 14 14 14 14 15 15 15 14 14 13 13 13 13 13 13 11 11 12 14 15 16 15 15 15
15 17 20 23 21 20 20 19 18 18 18 17 16 16 16 15 15 14 14 14 14 14 14 14 14 14 13 13 12 11 12 12 13 11 10 10 11 14 15 15 15 15 14
14 16 21 23 21 20 20 19 18 18 17 16 15 15 14 14 13 13 13 13 13 13 13 13 13 12 12 11 10 9 10 12 12 11 10 10 11 13 14 14 14 14 14
13 14 20 22 21 21 20 19 18 17 17 16 15 14 13 13 12 12 12 12 12 12 12 12 11 10 10 9 8 8 10 12 12 11 10 9 11 13 13 13 13 13 13
14 12 17 21 21 20 20 19 18 17 16 16 15 14 13 12 11 11 12 11 11 11 10 10 9 8 8 7 7 9 11 12 12 11 10 9 11 13 13 13 13 13 12
12 11 12 17 19 20 20 19 18 17 16 15 14 13 12 12 11 10 11 10 10 9 8 8 8 7 7 6 6 9 11 12 10 9 9 8 11 12 12 12 12 12 12
10 10 9 12 15 15 17 18 18 17 16 15 14 13 12 12 11 10 9 9 9 8 7 7 6 6 6 6 6 7 9 10 9 8 7 8 11 12 12 11 11 11 11
11 9 8 8 10 12 13 16 17 16 15 14 13 13 11 9 9 8 7 8 8 7 6 5 5 5 5 5 6 7 8 8 8 6 7 9 11 11 11 11 11 11 10
14 12 9 9 9 11 12 12 12 12 12 11 10 10 9 8 7 6 6 7 7 6 5 4 4 5 5 4 4 6 6 7 6 6 7 9 10 10 11 10 10 10 10
15 14 11 10 9 9 7 9 8 9 9 9 9 10 9 7 5 4 4 4 4 4 4 4 5 5 4 3 3 4 5 6 5 5 6 9 9 9 10 10 10 10 10
14 13 12 10 8 7 6 7 7 7 7 7 8 10 8 5 4 3 3 3 3 3 3 3 3 4 3 3 3 3 4 4 4 4 5 7 8 8 9 9 9 9 9
13 13 12 11 10 7 6 6 7 6 7 7 8 9 9 6 4 4 3 3 3 3 3 2 2 2 2 2 1 2 3 4 4 4 3 6 7 8 8 9 9 9 9
13 13 12 12 10 8 6 5 5 6 7 8 8 9 10 8 6 4 3 3 3 3 3 2 2 2 2 1 1 1 1 2 3 2 3 4 6 7 8 8 8 8 8
12 12 12 12 10 9 8 7 6 7 8 7 7 9 9 9 8 6 4 3 3 4 4 2 2 2 2 1 2 2 1 1 2 2 2 2 3 5 7 7 7 8 8
11 12 12 13 11 10 8 7 6 7 8 7 8 8 9 9 9 7 4 3 4 5 4 2 2 2 2 2 1 1 2 1 0 1 1 2 2 3 4 5 7 7 8
12 12 12 10 11 10 8 6 6 6 6 7 8 8 8 9 9 8 5 4 6 4 3 2 2 2 2 1 1 2 2 1 1 0 0 1 2 2 3 3 4 5 7
10 12 12 10 10 9 7 6 5 4 4 6 6 8 9 9 9 8 6 5 6 4 3 2 3 2 2 2 2 3 3 2 1 1 1 1 1 2 2 2 2 3 5
9 12 13 12 10 9 7 6 6 5 4 4 5 9 10 10 10 8 5 5 4 4 3 4 3 3 2 1 3 3 3 3 3 2 1 1 1 0 1 1 1 2 2
11 12 13 12 10 10 7 6 4 4 3 3 3 6 9 10 10 9 7 5 4 4 4 3 3 3 2 2 2 2 2 3 3 3 2 1 1 1 1 1 1 2 2
11 12 12 12 11 9 8 6 5 4 4 3 3 3 5 9 9 9 9 7 5 4 4 3 3 4 3 2 1 3 3 3 1 2 3 3 2 1 1 1 1 1 2
11 10 10 11 11 10 10 9 9 6 5 5 4 4 4 7 8 9 9 8 6 4 4 4 3 3 4 2 1 1 1 2 3 0 2 2 2 2 2 1 1 0 1
10 10 10 10 10 9 10 11 9 6 4 4 4 6 5 4 6 8 9 8 6 5 5 4 4 3 3 3 3 2 2 2 2 2 1 2 2 2 2 2 1 1 1
10 10 11 11 10 9 10 10 10 9 8 7 6 6 5 4 3 5 7 7 6 5 5 5 4 5 3 3 3 2 2 2 2 2 2 1 1 2 2 2 1 1 1
Wind_Direction
155 156 151 143 135 130 126 124 122 121 121 121 122 123 124 124 124 124 122 119 116 113 110 108 107 106 107 108 109 109 109 110 112 115 116 115 114 114 113 112 109 110 111
148 154 152 146 139 134 131 128 126 124 124 124 125 125 125 125 125 124 122 120 117 115 112 111 110 110 110 110 110 111 111 113 115 117 119 117 117 116 115 114 112 115 115
145 152 152 148 143 139 135 132 130 128 127 126 127 128 128 127 126 125 123 121 119 117 115 113 112 111 111 112 113 114 114 114 113 113 113 115 119 120 120 118 118 117 117
145 149 152 151 147 143 140 136 134 132 130 129 129 130 130 129 128 127 125 123 120 119 116 115 115 114 114 114 114 116 118 118 115 111 107 115 121 124 123 121 121 120 120
144 148 155 153 150 147 143 140 138 136 134 133 133 132 133 131 129 128 127 125 122 120 118 117 116 116 115 115 116 119 123 123 122 114 108 110 119 126 124 124 123 122 122
144 149 158 155 153 150 147 145 143 141 139 138 137 135 134 134 133 131 129 127 124 122 119 118 117 117 116 115 117 125 132 131 123 121 117 119 125 130 129 128 126 125 125
146 152 159 158 156 153 151 150 148 146 144 142 141 140 138 137 135 135 131 129 127 125 122 120 119 117 115 115 118 128 135 133 128 127 126 128 133 134 132 129 129 128 128
148 149 157 160 159 157 155 154 152 151 150 147 145 144 143 141 139 137 137 134 130 128 125 122 119 116 111 110 117 128 134 132 134 135 133 135 139 137 136 134 133 133 132
149 150 156 161 162 161 159 158 156 155 154 152 150 150 149 146 145 144 141 139 136 133 129 125 121 114 108 106 116 133 139 137 133 137 142 144 146 144 142 140 139 138 139
151 153 153 158 160 160 161 160 158 158 158 157 155 154 153 152 151 150 145 145 143 141 136 130 122 113 105 102 111 133 141 134 134 138 143 155 155 152 148 147 146 144 145
160 159 156 154 152 153 157 164 163 162 162 161 159 160 155 147 148 150 153 152 150 147 142 135 123 107 96 91 104 122 130 130 135 141 154 163 164 160 155 154 154 153 153
171 170 163 156 153 153 162 163 161 160 159 157 158 152 142 139 148 155 165 160 155 151 145 135 120 98 82 73 86 112 125 134 138 148 167 171 170 167 162 160 161 160 159
174 173 168 161 156 158 154 152 152 149 149 151 154 145 141 139 144 145 153 150 142 136 109 102 91 81 81 82 87 113 133 138 145 155 173 174 173 172 169 170 170 167 166
173 174 164 162 156 156 149 151 150 149 151 153 157 153 147 141 141 140 138 129 117 112 102 91 88 86 81 89 111 122 138 146 154 160 173 177 178 179 176 178 179 179 177
174 170 169 168 166 155 144 155 160 157 158 160 161 163 161 155 155 149 139 130 125 127 122 104 94 91 76 75 107 138 149 157 165 170 184 188 189 191 187 186 185 185 186
177 174 173 174 168 157 156 160 158 161 159 161 165 170 171 167 162 154 144 142 143 144 134 121 108 95 73 65 58 80 130 151 168 178 191 204 202 199 199 198 195 195 196
179 175 178 176 167 166 162 165 163 163 161 163 167 169 169 171 169 160 152 156 161 151 137 116 90 78 76 66 46 42 77 121 150 177 193 204 210 209 211 211 207 209 209
175 175 180 181 173 171 163 159 156 161 159 162 164 165 166 171 171 160 158 159 157 146 135 119 94 80 65 65 60 31 40 47 40 194 194 208 211 217 219 221 220 219 219
177 173 177 174 172 169 160 154 149 153 156 159 163 163 163 165 166 159 154 150 146 138 132 135 92 97 91 73 75 49 27 25 350 347 252 230 218 216 222 227 230 230 230
180 173 175 173 172 161 151 140 133 137 145 151 163 163 161 160 159 151 141 140 141 130 123 115 103 77 82 82 75 55 30 12 18 17 327 295 235 209 212 226 236 247 243
179 176 175 175 171 161 159 157 155 160 156 156 165 162 160 159 157 147 137 135 139 140 143 135 114 91 63 63 82 46 19 21 33 24 1 360 358 314 211 220 225 241 270
181 180 176 175 171 165 167 158 151 141 144 146 150 153 159 158 158 154 145 146 144 134 128 130 128 117 74 59 113 104 44 4 5 17 18 24 5 5 326 247 215 228 238
182 182 180 175 170 163 155 137 127 111 100 116 141 151 162 162 162 156 155 150 148 146 150 148 144 136 129 71 75 142 147 199 307 350 13 23 11 16 355 335 225 218 222
186 180 172 168 165 162 159 161 164 163 163 176 167 161 157 165 163 161 158 155 152 152 154 160 147 140 136 135 94 58 107 146 146 86 347 0 9 14 350 353 359 288 218
179 172 168 163 165 165 169 171 170 163 153 144 142 150 158 160 166 167 162 159 157 159 161 153 144 145 142 149 153 137 100 72 85 139 182 333 356 356 349 340 329 307 256
170 168 168 168 170 169 169 170 171 166 158 155 159 165 166 162 167 174 168 166 166 163 164 160 156 152 148 143 149 152 156 153 158 145 162 222 306 322 334 335 319 298 275
Height
1509 1513 1516 1519 1521 1523 1525 1526 1528 1529 1531 1532 1533 1535 1536 1537 1539 1540 1541 1542 1543 1544 1545 1546 1547 1547 1548 1549 1550 1550 1551 1552 1552 1553 1554 1555 1556 1557 1558 1559 1560 1562 1563
1506 1512 1516 1519 1522 1524 1526 1528 1529 1531 1532 1533 1535 1536 1538 1539 1540 1542 1543 1544 1545 1546 1547 1547 1548 1549 1550 1550 1551 1552 1553 1554 1555 1555 1556 1557 1558 1559 1560 1562 1563 1564 1565
1506 1511 1516 1519 1522 1525 1527 1529 1530 1532 1533 1535 1536 1538 1539 1541 1542 1544 1545 1546 1547 1548 1548 1549 1550 1551 1551 1552 1553 1554 1555 1556 1557 1557 1558 1559 1560 1562 1563 1564 1565 1566 1567
1507 1512 1516 1520 1523 1526 1528 1530 1531 1533 1535 1536 1538 1540 1541 1543 1544 1545 1547 1548 1549 1550 1550 1551 1552 1553 1553 1554 1555 1556 1557 1558 1559 1559 1560 1561 1563 1564 1565 1566 1567 1569 1570
1508 1512 1517 1520 1524 1526 1529 1531 1533 1534 1536 1538 1540 1542 1543 1545 1546 1547 1549 1550 1551 1551 1552 1553 1554 1555 1556 1557 1558 1558 1559 1560 1561 1561 1562 1563 1565 1566 1567 1568 1570 1571 1572
1509 1513 1517 1521 1524 1527 1530 1532 1534 1535 1537 1539 1541 1543 1545 1546 1548 1549 1550 1551 1552 1553 1554 1555 1556 1557 1558 1559 1560 1561 1561 1562 1563 1563 1564 1565 1567 1568 1569 1570 1571 1573 1574
1509 1514 1518 1521 1525 1527 1530 1532 1535 1537 1539 1541 1543 1545 1546 1548 1550 1551 1552 1553 1554 1555 1556 1557 1558 1559 1560 1561 1562 1563 1563 1564 1564 1565 1566 1567 1568 1570 1571 1572 1573 1574 1576
1510 1514 1518 1522 1525 1528 1530 1533 1535 1538 1540 1542 1544 1546 1548 1549 1551 1553 1554 1555 1556 1557 1558 1559 1560 1561 1562 1563 1564 1565 1565 1566 1566 1567 1568 1569 1570 1571 1572 1574 1575 1576 1578
1511 1515 1519 1522 1526 1529 1531 1533 1536 1538 1541 1543 1545 1547 1549 1551 1553 1554 1555 1556 1558 1559 1560 1561 1562 1563 1564 1565 1566 1566 1567 1567 1568 1569 1569 1570 1571 1573 1574 1575 1576 1578 1579
1511 1515 1518 1522 1525 1528 1531 1534 1536 1539 1542 1544 1546 1548 1550 1552 1554 1555 1557 1558 1559 1560 1561 1562 1563 1564 1565 1566 1567 1567 1568 1569 1569 1570 1571 1572 1573 1574 1575 1576 1578 1579 1580
1511 1514 1518 1522 1525 1528 1531 1534 1537 1539 1542 1545 1547 1549 1551 1552 1554 1556 1558 1559 1560 1561 1562 1563 1564 1565 1566 1567 1568 1568 1569 1570 1571 1571 1572 1573 1574 1575 1576 1578 1579 1580 1581
1508 1512 1517 1521 1524 1528 1531 1534 1537 1540 1542 1545 1547 1549 1551 1553 1555 1557 1559 1560 1561 1562 1563 1564 1565 1566 1567 1568 1568 1569 1570 1571 1572 1573 1573 1574 1575 1576 1577 1578 1580 1581 1582
1506 1510 1515 1520 1524 1527 1530 1534 1537 1540 1542 1545 1547 1550 1552 1554 1556 1558 1559 1561 1562 1563 1564 1564 1565 1566 1567 1568 1569 1570 1571 1572 1572 1573 1574 1575 1576 1577 1578 1579 1580 1581 1583
1505 1508 1512 1518 1523 1526 1530 1534 1537 1540 1542 1545 1547 1550 1552 1554 1556 1558 1560 1561 1562 1563 1564 1565 1565 1566 1567 1568 1569 1570 1571 1572 1573 1574 1575 1575 1576 1577 1578 1579 1581 1582 1583
1503 1507 1512 1517 1522 1525 1529 1533 1537 1539 1542 1545 1548 1550 1552 1554 1556 1558 1560 1561 1562 1563 1564 1565 1565 1566 1567 1568 1569 1570 1571 1572 1573 1574 1575 1575 1576 1577 1578 1579 1580 1582 1583
1502 1507 1511 1516 1520 1525 1528 1533 1536 1540 1543 1545 1548 1550 1552 1554 1556 1558 1560 1561 1562 1563 1564 1565 1566 1566 1567 1568 1569 1570 1571 1572 1573 1574 1575 1575 1576 1577 1578 1579 1580 1581 1583
1501 1506 1510 1515 1519 1524 1528 1532 1536 1539 1542 1545 1548 1550 1552 1554 1556 1558 1559 1561 1562 1563 1564 1565 1565 1566 1567 1568 1569 1570 1571 1572 1573 1574 1574 1575 1576 1577 1578 1579 1580 1581 1582
1499 1503 1508 1514 1518 1522 1527 1531 1535 1539 1542 1545 1548 1550 1552 1554 1556 1558 1559 1561 1562 1563 1563 1564 1565 1566 1567 1568 1569 1570 1571 1572 1573 1573 1574 1575 1576 1577 1577 1578 1579 1580 1581
1496 1501 1506 1512 1516 1521 1526 1530 1534 1538 1541 1544 1547 1549 1552 1554 1556 1557 1559 1560 1561 1562 1563 1564 1565 1566 1567 1568 1569 1570 1571 1571 1572 1573 1574 1575 1575 1576 1577 1578 1578 1579 1580
1494 1498 1504 1509 1515 1520 1525 1529 1533 1537 1540 1543 1546 1549 1551 1553 1555 1556 1558 1559 1561 1562 1563 1564 1565 1566 1567 1567 1568 1569 1570 1571 1572 1573 1573 1574 1575 1576 1576 1577 1578 1578 1579
1492 1495 1500 1506 1512 1518 1522 1527 1531 1535 1539 1542 1546 1548 1550 1552 1554 1556 1557 1558 1560 1561 1563 1564 1564 1565 1566 1567 1568 1569 1570 1571 1572 1572 1573 1573 1574 1575 1576 1576 1577 1578 1578
1489 1493 1498 1503 1510 1515 1521 1526 1530 1534 1538 1541 1545 1547 1549 1551 1553 1555 1556 1558 1559 1560 1562 1563 1564 1565 1565 1566 1568 1569 1570 1572 1571 1572 1572 1573 1574 1574 1575 1576 1576 1577 1577
1487 1491 1495 1501 1508 1513 1519 1525 1529 1533 1536 1540 1543 1545 1548 1550 1552 1554 1555 1557 1558 1560 1561 1562 1563 1564 1565 1566 1567 1569 1569 1570 1570 1572 1572 1572 1573 1574 1574 1575 1575 1576 1577
1486 1490 1495 1500 1506 1512 1517 1522 1526 1530 1533 1538 1541 1544 1547 1549 1551 1553 1554 1556 1557 1558 1560 1561 1562 1563 1564 1565 1566 1567 1568 1569 1570 1570 1572 1572 1572 1573 1574 1574 1575 1575 1576
1484 1488 1493 1499 1505 1510 1516 1521 1525 1529 1533 1537 1540 1543 1546 1548 1550 1551 1553 1555 1556 1557 1559 1560 1561 1562 1563 1564 1565 1566 1567 1568 1568 1569 1570 1571 1572 1573 1573 1573 1574 1574 1575
1483 1487 1492 1498 1504 1509 1514 1519 1523 1527 1531 1535 1538 1541 1544 1546 1548 1550 1552 1553 1555 1556 1557 1558 1560 1561 1562 1563 1564 1565 1566 1567 1567 1568 1569 1570 1570 1571 1572 1572 1573 1573 1574